FW6618 Weather Reports


time (UTC)temp
C
wind
direction
speed
KPH
gust
KPH
rain 1hr
cm
rain 24hr
cm
rain mn
cm
humidity
%
barometer
mb
20260504141019 13 207 6.4 14.5 0.00 0.00 0.00 52 1010.4
20260504140516 13 196 3.2 14.5 0.00 0.00 0.00 53 1010.3
20260504130522 12 236 4.8 16.1 0.00 0.00 0.00 55 1010.6
20260504110519 5 14 1.6 6.4 0.00 0.00 0.00 84 1010.9
20260504100521 4 0 0.0 1.6 0.00 0.00 0.00 87 1010.9
20260504081537 6 245 0.0 3.2 0.00 0.00 0.00 86 1011.0
20260504081018 6 262 0.0 3.2 0.00 0.00 0.00 84 1011.0
20260504080519 6 0 0.0 3.2 0.00 0.00 0.00 82 1011.0
20260504050522 7 124 4.8 14.5 0.00 0.00 0.00 67 1011.3
20260504045520 7 29 1.6 6.4 0.00 0.00 0.00 66 1011.3
20260504045019 8 160 1.6 9.7 0.00 0.00 0.00 66 1011.4
20260504044535 8 188 1.6 9.7 0.00 0.00 0.00 65 1011.4
20260504044020 7 110 1.6 8.0 0.00 0.00 0.00 66 1011.4
20260504043518 7 141 1.6 4.8 0.00 0.00 0.00 66 1011.5
20260504043036 7 0 0.0 4.8 0.00 0.00 0.00 68 1011.4
20260504042520 7 140 1.6 8.0 0.00 0.00 0.00 67 1011.3
20260504042016 7 97 1.6 8.0 0.00 0.00 0.00 68 1011.4
20260504041531 7 110 1.6 3.2 0.00 0.00 0.00 70 1011.4
20260504041017 7 15 1.6 4.8 0.00 0.00 0.00 70 1011.4
20260504040517 7 338 1.6 4.8 0.00 0.00 0.00 68 1011.4
20260504040041 7 139 0.0 9.7 0.00 0.00 0.00 68 1011.2
20260504035522 7 341 3.2 11.3 0.00 0.00 0.00 66 1011.2
20260504035019 7 188 4.8 11.3 0.00 0.00 0.00 65 1011.2
20260504034537 7 150 4.8 11.3 0.00 0.00 0.00 62 1011.3
20260504034016 7 347 3.2 8.0 0.00 0.00 0.00 65 1011.2
20260504033519 7 153 1.6 8.0 0.00 0.00 0.00 64 1011.3
20260504033048 6 68 1.6 4.8 0.00 0.00 0.00 71 1011.2
20260504032519 6 310 0.0 4.8 0.00 0.00 0.00 67 1011.1
20260504032018 6 173 0.0 4.8 0.00 0.00 0.00 72 1011.2
20260504031537 6 342 1.6 4.8 0.00 0.00 0.00 69 1011.2
20260504031019 5 48 1.6 4.8 0.00 0.00 0.00 71 1011.1
20260504030519 5 67 1.6 4.8 0.00 0.00 0.00 72 1011.0
20260504030037 5 323 3.2 4.8 0.00 0.00 0.00 74 1011.2
20260504025519 5 326 1.6 4.8 0.00 0.00 0.00 74 1011.0
20260504025022 5 340 1.6 4.8 0.00 0.00 0.00 73 1011.1
20260504024543 5 142 1.6 4.8 0.00 0.00 0.00 68 1011.1
20260504024018 5 317 1.6 3.2 0.00 0.00 0.00 76 1011.2
20260504023520 4 16 0.0 3.2 0.00 0.00 0.00 74 1011.2
20260504023039 4 75 0.0 6.4 0.00 0.00 0.00 76 1011.2
20260504022520 4 16 3.2 6.4 0.00 0.00 0.00 76 1011.3
20260504022020 4 53 1.6 3.2 0.00 0.00 0.00 76 1011.2
20260504021547 3 0 1.6 4.8 0.00 0.00 0.00 73 1011.5
20260504021019 3 316 1.6 4.8 0.00 0.00 0.00 76 1011.4
20260504020520 3 330 1.6 4.8 0.00 0.00 0.00 78 1011.4
20260504020037 3 29 0.0 3.2 0.00 0.00 0.00 75 1011.3
20260504015521 3 69 0.0 4.8 0.00 0.00 0.00 76 1011.3
20260504015022 3 338 1.6 4.8 0.00 0.00 0.00 78 1011.4
20260504014536 3 77 0.0 3.2 0.00 0.00 0.00 77 1011.3
20260504014019 3 0 0.0 3.2 0.00 0.00 0.00 78 1011.2
20260504013522 3 23 1.6 3.2 0.00 0.00 0.00 78 1011.0
20260504013041 3 48 1.6 4.8 0.00 0.00 0.00 78 1011.1
20260504012517 3 77 1.6 4.8 0.00 0.00 0.00 77 1011.0
20260504012021 3 0 0.0 0.0 0.00 0.00 0.00 77 1011.0
20260504011541 3 0 0.0 0.0 0.00 0.00 0.00 78 1010.8
20260504011020 3 0 0.0 0.0 0.00 0.00 0.00 78 1010.7
20260504010520 3 0 0.0 0.0 0.00 0.00 0.00 77 1010.7
20260504010037 3 0 0.0 6.4 0.00 0.00 0.00 77 1010.6
20260504005519 3 0 0.0 6.4 0.00 0.00 0.00 77 1010.6
20260504005019 3 356 3.2 6.4 0.00 0.00 0.00 73 1010.6
20260504004543 3 0 0.0 4.8 0.00 0.00 0.00 77 1010.5
20260504004019 4 321 1.6 4.8 0.00 0.00 0.00 73 1010.3
20260504003520 4 0 0.0 4.8 0.00 0.00 0.00 74 1010.3
20260504003036 4 0 1.6 4.8 0.00 0.00 0.00 72 1010.1
20260504002516 4 105 0.0 3.2 0.00 0.00 0.00 74 1010.2
20260504002017 5 0 0.0 3.2 0.00 0.00 0.00 74 1010.0
20260504001534 5 74 0.0 1.6 0.00 0.00 0.00 71 1010.0
20260504001022 5 75 0.0 3.2 0.00 0.00 0.00 70 1009.9
20260504000519 5 0 0.0 3.2 0.00 0.00 0.00 72 1009.8
20260504000035 5 352 0.0 3.2 0.00 0.00 0.00 71 1009.7
20260503235519 5 0 0.0 1.6 0.00 0.00 0.00 68 1009.6
20260503235020 6 356 0.0 1.6 0.00 0.00 0.00 69 1009.6
20260503234535 6 0 0.0 1.6 0.00 0.00 0.00 70 1009.6
20260503234018 6 340 0.0 1.6 0.00 0.00 0.00 68 1009.5
20260503233517 6 344 0.0 3.2 0.00 0.00 0.00 67 1009.4
20260503233037 7 344 0.0 3.2 0.00 0.00 0.00 64 1009.4
20260503232519 7 87 1.6 3.2 0.00 0.00 0.00 64 1009.4
20260503232018 7 351 1.6 3.2 0.00 0.00 0.00 64 1009.3
20260503231540 7 0 0.0 6.4 0.00 0.00 0.00 61 1009.4
20260503231021 8 285 3.2 6.4 0.00 0.00 0.00 58 1009.4
20260503230517 8 0 0.0 6.4 0.00 0.00 0.00 55 1009.3
20260503230037 8 93 3.2 6.4 0.00 0.00 0.00 54 1009.2
20260503225516 9 274 0.0 9.7 0.00 0.00 0.00 49 1009.3
20260503225020 10 68 1.6 9.7 0.00 0.00 0.00 43 1009.2
20260503224535 10 328 3.2 9.7 0.00 0.00 0.00 42 1009.2
20260503224017 10 38 3.2 9.7 0.00 0.00 0.00 38 1009.2
20260503223519 11 101 1.6 6.4 0.00 0.00 0.00 40 1009.1
20260503223036 11 246 0.0 4.8 0.00 0.00 0.00 37 1009.2
20260503222519 11 113 1.6 9.7 0.00 0.00 0.00 38 1009.1
20260503222016 11 62 3.2 9.7 0.00 0.00 0.00 39 1009.2
20260503221538 11 69 4.8 11.3 0.00 0.00 0.00 39 1009.2
20260503221019 11 56 3.2 11.3 0.00 0.00 0.00 41 1009.2
20260503220520 11 89 3.2 11.3 0.00 0.00 0.00 38 1009.2
20260503220038 11 139 3.2 9.7 0.00 0.00 0.00 39 1009.4
20260503215516 11 233 1.6 8.0 0.00 0.00 0.00 40 1009.2
20260503215019 11 90 3.2 9.7 0.00 0.00 0.00 38 1009.3
20260503214536 11 321 1.6 9.7 0.00 0.00 0.00 43 1009.3
20260503214016 11 172 1.6 11.3 0.00 0.00 0.00 42 1009.3
20260503213519 11 79 4.8 11.3 0.00 0.00 0.00 41 1009.3
20260503213037 11 56 4.8 12.9 0.00 0.00 0.00 41 1009.3
20260503212518 10 212 4.8 12.9 0.00 0.00 0.00 42 1009.4
20260503212017 10 4 3.2 11.3 0.00 0.00 0.00 45 1009.4
20260503211540 10 95 4.8 9.7 0.00 0.00 0.00 43 1009.2
20260503211019 10 56 3.2 16.1 0.00 0.00 0.00 44 1009.3
20260503210516 10 338 3.2 16.1 0.00 0.00 0.00 43 1009.3
20260503210035 10 325 3.2 9.7 0.00 0.00 0.00 43 1009.4
20260503205524 10 353 3.2 12.9 0.00 0.00 0.00 45 1009.2
20260503205020 9 225 4.8 12.9 0.00 0.00 0.00 44 1009.3
20260503204534 9 28 3.2 16.1 0.00 0.00 0.00 45 1009.4
20260503204017 9 143 4.8 16.1 0.00 0.00 0.00 46 1009.5
20260503203519 9 308 8.0 16.1 0.00 0.00 0.00 45 1009.6
20260503203034 9 98 6.4 14.5 0.00 0.00 0.00 43 1009.4
20260503202520 10 96 4.8 12.9 0.00 0.00 0.00 47 1009.5
20260503202017 9 54 3.2 14.5 0.00 0.00 0.00 45 1009.5
20260503201538 9 144 6.4 14.5 0.00 0.00 0.00 44 1009.5
20260503201017 10 57 6.4 12.9 0.00 0.00 0.00 47 1009.4
20260503200518 10 206 3.2 8.0 0.00 0.00 0.00 45 1009.5
20260503200037 10 175 1.6 17.7 0.00 0.00 0.00 47 1009.6
20260503195521 9 107 1.6 17.7 0.00 0.00 0.00 47 1009.5
20260503195017 10 54 3.2 12.9 0.00 0.00 0.00 45 1009.7
20260503194542 9 15 3.2 17.7 0.00 0.00 0.00 46 1009.8
20260503194019 9 253 6.4 17.7 0.00 0.00 0.00 45 1009.9
20260503193516 9 55 3.2 16.1 0.00 0.00 0.00 46 1009.9
20260503193041 9 279 6.4 16.1 0.00 0.00 0.00 44 1010.2
20260503192516 9 293 3.2 16.1 0.00 0.00 0.00 45 1010.0
20260503192018 8 100 4.8 14.5 0.00 0.00 0.00 45 1010.3
20260503191536 8 340 4.8 17.7 0.00 0.00 0.00 45 1010.1
20260503191023 9 105 6.4 19.3 0.00 0.00 0.00 44 1010.2
20260503190517 9 222 9.7 19.3 0.00 0.00 0.00 44 1010.3
20260503190042 8 100 4.8 12.9 0.00 0.00 0.00 46 1010.3
20260503185518 8 257 4.8 17.7 0.00 0.00 0.00 46 1010.4
20260503185019 8 23 8.0 24.1 0.00 0.00 0.00 46 1010.2
20260503184531 8 238 4.8 24.1 0.00 0.00 0.00 48 1010.4
20260503184018 8 15 4.8 19.3 0.00 0.00 0.00 48 1010.6
20260503183520 8 184 3.2 19.3 0.00 0.00 0.00 46 1010.3
20260503183031 8 218 4.8 12.9 0.00 0.00 0.00 45 1010.4
20260503182523 8 264 3.2 12.9 0.00 0.00 0.00 49 1010.6
20260503182017 8 278 4.8 20.9 0.00 0.00 0.00 47 1010.4
20260503181538 8 79 4.8 20.9 0.00 0.00 0.00 47 1010.5
20260503181018 8 24 6.4 12.9 0.00 0.00 0.00 47 1010.5
20260503180518 8 334 4.8 17.7 0.00 0.00 0.00 51 1010.5
20260503180036 8 245 3.2 17.7 0.00 0.00 0.00 47 1010.4
20260503175517 8 354 8.0 17.7 0.00 0.00 0.00 46 1010.3
20260503175022 8 335 6.4 17.7 0.00 0.00 0.00 45 1010.5
20260503174549 8 79 4.8 16.1 0.00 0.00 0.00 48 1010.3
20260503174016 8 144 4.8 20.9 0.00 0.00 0.00 49 1010.5
20260503173520 7 235 4.8 20.9 0.00 0.00 0.00 49 1010.4
20260503173040 7 295 4.8 14.5 0.00 0.00 0.00 48 1010.6
20260503172518 7 275 6.4 16.1 0.00 0.00 0.00 48 1010.5
20260503172019 7 12 3.2 16.1 0.00 0.00 0.00 50 1010.6
20260503171537 7 122 8.0 17.7 0.00 0.00 0.00 48 1010.5
20260503171019 7 280 4.8 17.7 0.00 0.00 0.00 48 1010.4
20260503170519 8 309 6.4 17.7 0.00 0.00 0.00 48 1010.4
20260503150518 6 174 1.6 16.1 0.00 0.13 0.00 59 1010.7